TimeEDT,TemperatureF,Dew PointF,Humidity,Sea Level PressureIn,VisibilityMPH,Wind Direction,Wind SpeedMPH,Gust SpeedMPH,PrecipitationIn,Events,Conditions,WindDirDegrees,DateUTC
12:51 AM,46.9,39.9,77,29.96,10.0,SW,3.5,-,N/A,,Mostly Cloudy,230,2011-10-22 04:51:00
1:51 AM,46.9,39.9,77,29.96,10.0,SSW,3.5,-,N/A,,Overcast,210,2011-10-22 05:51:00
2:51 AM,46.0,41.0,83,29.97,10.0,SSW,3.5,-,N/A,,Overcast,210,2011-10-22 06:51:00
3:51 AM,46.9,41.0,80,29.97,10.0,SSW,4.6,-,0.00,,Overcast,210,2011-10-22 07:51:00
4:51 AM,46.9,39.9,77,29.98,10.0,SW,3.5,-,N/A,,Overcast,220,2011-10-22 08:51:00
5:51 AM,46.9,39.9,77,29.99,10.0,South,4.6,-,N/A,,Overcast,170,2011-10-22 09:51:00
6:41 AM,46.4,41.0,81,29.97,10.0,Calm,Calm,-,N/A,,Overcast,0,2011-10-22 10:41:00
6:51 AM,46.0,41.0,83,30.00,10.0,Calm,Calm,-,N/A,,Overcast,0,2011-10-22 10:51:00
7:13 AM,46.4,41.0,81,29.98,10.0,Calm,Calm,-,0.00,Rain,Light Rain,0,2011-10-22 11:13:00
7:51 AM,44.6,42.8,93,29.99,10.0,Calm,Calm,-,N/A,,Overcast,0,2011-10-22 11:51:00
8:51 AM,46.0,41.0,83,30.03,10.0,Calm,Calm,-,N/A,,Overcast,0,2011-10-22 12:51:00
9:51 AM,46.9,42.1,83,30.03,10.0,Calm,Calm,-,0.01,,Overcast,0,2011-10-22 13:51:00
10:23 AM,44.6,44.6,100,30.02,9.0,North,5.8,-,0.00,Rain,Light Rain,350,2011-10-22 14:23:00
10:42 AM,44.6,42.8,93,30.02,4.0,Calm,Calm,-,0.01,Rain,Light Rain,0,2011-10-22 14:42:00
10:51 AM,46.0,44.1,93,30.05,10.0,NNW,3.5,-,0.01,Rain,Light Rain,340,2011-10-22 14:51:00
10:58 AM,46.4,44.6,93,30.02,10.0,North,3.5,-,0.00,,Overcast,350,2011-10-22 14:58:00
11:20 AM,46.4,44.6,93,30.03,10.0,NNW,3.5,-,0.01,Rain,Light Rain,330,2011-10-22 15:20:00
11:32 AM,46.4,44.6,93,30.03,10.0,Calm,Calm,-,0.01,,Overcast,0,2011-10-22 15:32:00
11:46 AM,46.4,42.8,87,30.03,10.0,North,5.8,-,0.01,,Overcast,360,2011-10-22 15:46:00
11:51 AM,46.0,43.0,89,30.05,9.0,NNW,4.6,-,0.01,,Overcast,340,2011-10-22 15:51:00
12:51 PM,46.9,42.1,83,30.04,10.0,Calm,Calm,-,0.00,,Overcast,0,2011-10-22 16:51:00
1:51 PM,48.9,42.1,77,30.03,10.0,Calm,Calm,-,0.00,Rain,Light Rain,0,2011-10-22 17:51:00
2:07 PM,48.2,42.8,82,30.01,10.0,Calm,Calm,-,0.00,,Overcast,0,2011-10-22 18:07:00
2:51 PM,48.0,43.0,83,30.04,7.0,Calm,Calm,-,0.00,Rain,Light Rain,0,2011-10-22 18:51:00
3:05 PM,48.2,42.8,82,30.02,10.0,Calm,Calm,-,0.00,,Overcast,0,2011-10-22 19:05:00
3:21 PM,48.2,42.8,82,30.02,10.0,NW,4.6,-,0.00,,Overcast,320,2011-10-22 19:21:00
3:44 PM,46.4,42.8,87,30.03,9.0,Variable,4.6,-,0.01,Rain,Light Rain,0,2011-10-22 19:44:00
3:51 PM,46.9,42.1,83,30.05,9.0,Variable,4.6,-,0.01,Rain,Light Rain,0,2011-10-22 19:51:00
4:51 PM,46.0,42.1,86,30.06,10.0,NNW,4.6,-,0.00,,Overcast,330,2011-10-22 20:51:00
5:51 PM,44.6,42.8,93,30.04,10.0,Calm,Calm,-,N/A,,Overcast,0,2011-10-22 21:51:00
6:51 PM,45.0,43.0,93,30.08,10.0,Calm,Calm,-,N/A,,Overcast,0,2011-10-22 22:51:00
7:31 PM,44.6,42.8,93,30.07,10.0,Calm,Calm,-,N/A,,Overcast,0,2011-10-22 23:31:00
7:51 PM,44.1,43.0,96,30.09,10.0,Calm,Calm,-,N/A,,Overcast,0,2011-10-22 23:51:00
8:36 PM,44.6,42.8,93,30.07,10.0,Calm,Calm,-,0.00,,Overcast,0,2011-10-23 00:36:00
8:51 PM,45.0,43.0,93,30.10,10.0,Calm,Calm,-,0.00,,Overcast,0,2011-10-23 00:51:00
9:51 PM,45.0,41.0,86,30.12,10.0,NW,3.5,-,N/A,,Overcast,310,2011-10-23 01:51:00
10:51 PM,45.0,41.0,86,30.11,10.0,Calm,Calm,-,N/A,,Overcast,0,2011-10-23 02:51:00
11:51 PM,44.1,41.0,89,30.12,10.0,Calm,Calm,-,N/A,,Overcast,0,2011-10-23 03:51:00